Powrót do katalogu

OPS 4682 DEB

AktywnyPO
NORAD 55118·DEBRIS·🇺🇸 United States

Wystrzelony Apr 3, 1965 z Vandenberg Space Force Base

Loading…

Następne Przeloty (najbliższe 24 godziny)

TLE

Starzejące sięSource: Space-Track

Epoka: Sep 5, 2026, 02:27 UTC

1 55118U 65027HH  26248.10221157  .00000456  00000-0  15110-2 0  9996
2 55118  90.2411   5.5184 0033950 167.8897 316.7858 12.98801371602688

Śledź OPS 4682 DEB w czasie rzeczywistym z AllMySat

Download on the App Store